Location: Derby
(52.9213°N, 1.4761°W)
Time: 17:39:01
(UTC+01:00)

Tiros 1 - Pass Details

Date: 22 May 2025
Orbit: 620 x 651 km, 48.4° (Epoch: 13 June)

Event Time Altitude Azimuth Distance (km) Brightness Sun altitude
Rises 00:01:08 0° 274° (W) 2,921 10.8 -15.5°
Reaches altitude 10° 00:04:35 10° 247° (WSW) 2,017 9.6 -15.6°
Maximum altitude 00:06:45 13° 219° (SW) 1,814 9.1 -15.7°
Enters shadow 00:06:49 13° 218° (SW) 1,814 9.1 -15.7°
Drops below altitude 10° 00:08:55 10° 191° (S) 2,022 - -15.8°
Sets 00:12:24 0° 165° (SSE) 2,934 - -15.9°
